TimeEST,TemperatureF,Dew PointF,Humidity,Sea Level PressureIn,VisibilityMPH,Wind Direction,Wind SpeedMPH,Gust SpeedMPH,PrecipitationIn,Events,Conditions,WindDirDegrees,DateUTC
12:15 AM,36.1,25.0,64,29.94,10.0,NW,10.4,-,N/A,,Overcast,320,2013-03-02 05:15:00
12:35 AM,35.8,25.0,65,29.94,10.0,NNW,8.1,-,N/A,,Overcast,330,2013-03-02 05:35:00
12:55 AM,35.4,24.8,65,29.93,10.0,NW,8.1,-,N/A,,Overcast,320,2013-03-02 05:55:00
1:15 AM,34.7,24.8,67,29.93,10.0,NW,5.8,-,N/A,,Overcast,310,2013-03-02 06:15:00
1:35 AM,32.9,24.4,71,29.93,10.0,NW,4.6,-,N/A,,Scattered Clouds,310,2013-03-02 06:35:00
1:55 AM,31.8,24.3,74,29.94,10.0,WNW,3.5,-,N/A,,Clear,300,2013-03-02 06:55:00
2:15 AM,32.2,23.9,72,29.93,10.0,Calm,Calm,-,N/A,,Mostly Cloudy,0,2013-03-02 07:15:00
2:35 AM,31.1,23.9,75,29.93,10.0,Calm,Calm,-,N/A,,Overcast,0,2013-03-02 07:35:00
2:55 AM,30.2,24.3,79,29.93,10.0,Calm,Calm,-,N/A,,Overcast,0,2013-03-02 07:55:00
3:15 AM,30.0,24.4,80,29.92,10.0,WNW,3.5,-,N/A,,Overcast,290,2013-03-02 08:15:00
3:35 AM,29.1,23.9,81,29.92,10.0,WNW,5.8,-,N/A,,Overcast,300,2013-03-02 08:35:00
3:55 AM,28.4,23.5,82,29.92,10.0,NW,3.5,-,N/A,,Scattered Clouds,310,2013-03-02 08:55:00
4:15 AM,30.2,23.5,76,29.92,10.0,Calm,Calm,-,N/A,,Clear,0,2013-03-02 09:15:00
4:35 AM,30.0,23.7,77,29.92,10.0,Calm,Calm,-,N/A,,Clear,0,2013-03-02 09:35:00
4:55 AM,28.9,23.5,80,29.92,10.0,Calm,Calm,-,N/A,,Clear,0,2013-03-02 09:55:00
5:15 AM,27.5,23.7,86,29.93,10.0,Calm,Calm,-,N/A,,Clear,0,2013-03-02 10:15:00
5:35 AM,28.6,23.7,82,29.92,10.0,Calm,Calm,-,N/A,,Clear,0,2013-03-02 10:35:00
5:55 AM,26.2,23.4,89,29.93,10.0,Calm,Calm,-,N/A,,Clear,0,2013-03-02 10:55:00
6:15 AM,26.6,22.8,86,29.93,10.0,Calm,Calm,-,N/A,,Clear,0,2013-03-02 11:15:00
6:35 AM,25.3,22.6,89,29.93,10.0,Calm,Calm,-,N/A,,Scattered Clouds,0,2013-03-02 11:35:00
6:55 AM,26.1,22.8,88,29.93,10.0,Calm,Calm,-,N/A,,Scattered Clouds,0,2013-03-02 11:55:00
7:15 AM,27.1,23.7,87,29.93,10.0,Calm,Calm,-,N/A,,Mostly Cloudy,0,2013-03-02 12:15:00
7:35 AM,27.5,25.3,92,29.93,10.0,Calm,Calm,-,N/A,,Overcast,0,2013-03-02 12:35:00
7:55 AM,28.4,26.4,92,29.94,10.0,Calm,Calm,-,N/A,,Overcast,0,2013-03-02 12:55:00
8:15 AM,31.1,26.4,83,29.95,10.0,Calm,Calm,-,N/A,,Overcast,0,2013-03-02 13:15:00
8:35 AM,32.2,26.2,79,29.95,10.0,Calm,Calm,-,N/A,,Overcast,0,2013-03-02 13:35:00
8:55 AM,33.6,24.4,69,29.95,10.0,Calm,Calm,-,N/A,,Overcast,0,2013-03-02 13:55:00
9:15 AM,35.1,23.5,63,29.95,10.0,NNW,10.4,16.1,N/A,,Overcast,330,2013-03-02 14:15:00
9:35 AM,34.9,23.0,62,29.95,10.0,NNW,13.8,-,N/A,,Overcast,330,2013-03-02 14:35:00
9:55 AM,35.6,22.1,58,29.95,10.0,North,12.7,19.6,N/A,,Overcast,350,2013-03-02 14:55:00
10:15 AM,36.1,22.6,58,29.94,10.0,NW,13.8,-,N/A,,Overcast,320,2013-03-02 15:15:00
10:35 AM,37.9,23.2,55,29.93,10.0,North,11.5,19.6,N/A,,Overcast,350,2013-03-02 15:35:00
10:55 AM,37.9,21.9,53,29.93,10.0,NNW,12.7,20.7,N/A,,Overcast,330,2013-03-02 15:55:00
11:15 AM,36.9,21.7,54,29.93,10.0,NNW,11.5,17.3,N/A,,Overcast,340,2013-03-02 16:15:00
11:35 AM,36.7,22.1,56,29.92,10.0,NNW,11.5,19.6,N/A,,Overcast,340,2013-03-02 16:35:00
11:55 AM,36.7,21.9,55,29.92,10.0,NNW,11.5,18.4,N/A,,Overcast,330,2013-03-02 16:55:00
12:15 PM,36.3,22.1,56,29.92,10.0,NW,10.4,16.1,N/A,,Overcast,320,2013-03-02 17:15:00
12:35 PM,36.9,22.3,56,29.91,10.0,NNW,11.5,-,N/A,,Overcast,330,2013-03-02 17:35:00
12:55 PM,37.0,22.5,56,29.89,10.0,NNW,9.2,-,N/A,,Overcast,330,2013-03-02 17:55:00
1:15 PM,37.4,22.1,54,29.89,10.0,NNW,15.0,20.7,N/A,,Overcast,330,2013-03-02 18:15:00
1:35 PM,37.4,20.7,51,29.88,10.0,West,11.5,17.3,N/A,,Overcast,280,2013-03-02 18:35:00
1:55 PM,38.3,20.8,50,29.88,10.0,NNW,16.1,20.7,N/A,,Overcast,340,2013-03-02 18:55:00
2:15 PM,37.8,21.0,51,29.88,10.0,NW,11.5,20.7,N/A,,Overcast,320,2013-03-02 19:15:00
2:35 PM,37.2,20.7,51,29.88,10.0,NW,8.1,-,N/A,,Overcast,310,2013-03-02 19:35:00
2:55 PM,37.4,21.0,52,29.88,10.0,WNW,8.1,15.0,N/A,,Overcast,300,2013-03-02 19:55:00
3:15 PM,37.4,21.6,53,29.88,10.0,NNW,9.2,16.1,N/A,,Overcast,330,2013-03-02 20:15:00
3:35 PM,36.7,22.1,56,29.88,10.0,WNW,5.8,10.4,N/A,,Overcast,300,2013-03-02 20:35:00
3:55 PM,37.0,22.1,55,29.88,10.0,West,6.9,-,N/A,,Overcast,270,2013-03-02 20:55:00
4:15 PM,37.0,22.1,55,29.88,10.0,WNW,6.9,-,N/A,,Overcast,300,2013-03-02 21:15:00
4:35 PM,36.9,22.5,56,29.88,10.0,West,4.6,-,N/A,,Overcast,280,2013-03-02 21:35:00
4:55 PM,36.9,22.6,56,29.88,10.0,NW,5.8,-,N/A,,Overcast,310,2013-03-02 21:55:00
5:15 PM,36.7,23.4,59,29.89,10.0,NW,6.9,-,N/A,,Overcast,310,2013-03-02 22:15:00
5:35 PM,36.7,23.2,58,29.89,10.0,NW,8.1,-,N/A,,Overcast,310,2013-03-02 22:35:00
5:55 PM,36.5,23.0,58,29.90,10.0,WNW,11.5,18.4,N/A,,Overcast,300,2013-03-02 22:55:00
6:15 PM,35.6,23.7,62,29.90,10.0,NW,10.4,-,N/A,,Overcast,320,2013-03-02 23:15:00
6:35 PM,35.6,23.0,60,29.90,10.0,NW,10.4,-,N/A,,Overcast,320,2013-03-02 23:35:00
6:55 PM,35.6,23.0,60,29.91,10.0,NW,10.4,-,N/A,,Overcast,320,2013-03-02 23:55:00
7:15 PM,35.6,23.0,60,29.91,10.0,NNW,6.9,10.4,N/A,,Overcast,330,2013-03-03 00:15:00
7:35 PM,35.2,23.0,61,29.91,10.0,NNW,6.9,11.5,N/A,,Overcast,340,2013-03-03 00:35:00
7:55 PM,34.9,23.0,62,29.91,10.0,NNW,15.0,-,N/A,,Overcast,330,2013-03-03 00:55:00
8:15 PM,34.0,22.8,64,29.91,10.0,NNW,10.4,-,N/A,,Mostly Cloudy,330,2013-03-03 01:15:00
8:35 PM,33.3,21.4,62,29.92,10.0,NNW,12.7,16.1,N/A,,Scattered Clouds,330,2013-03-03 01:35:00
8:55 PM,32.4,20.8,63,29.92,10.0,NW,12.7,16.1,N/A,,Scattered Clouds,320,2013-03-03 01:55:00
9:15 PM,32.0,20.3,62,29.92,10.0,NW,9.2,-,N/A,,Scattered Clouds,320,2013-03-03 02:15:00
9:35 PM,32.2,19.8,60,29.93,10.0,NW,6.9,-,N/A,,Clear,310,2013-03-03 02:35:00
9:55 PM,31.1,19.8,63,29.92,10.0,WNW,5.8,-,N/A,,Clear,300,2013-03-03 02:55:00
10:15 PM,30.9,19.8,63,29.93,10.0,WNW,4.6,-,N/A,,Clear,290,2013-03-03 03:15:00
10:35 PM,30.0,19.6,65,29.92,10.0,West,3.5,-,N/A,,Clear,280,2013-03-03 03:35:00
10:55 PM,30.0,19.9,66,29.92,10.0,Calm,Calm,-,N/A,,Scattered Clouds,0,2013-03-03 03:55:00
11:15 PM,29.3,20.1,69,29.92,10.0,Calm,Calm,-,N/A,,Overcast,0,2013-03-03 04:15:00
11:35 PM,29.8,20.1,67,29.92,10.0,Calm,Calm,-,N/A,,Mostly Cloudy,0,2013-03-03 04:35:00
11:55 PM,30.0,20.3,67,29.92,10.0,Calm,Calm,-,N/A,,Mostly Cloudy,0,2013-03-03 04:55:00